Time,TemperatureF,DewpointF,PressureIn,WindDirection,WindDirectionDegrees,WindSpeedMPH,WindSpeedGustMPH,Humidity,HourlyPrecipIn,Conditions,Clouds,dailyrainin,SolarRadiationWatts/m^2,SoftwareType,DateUTC
2013-10-17 00:00:00,48.0,45.0,-100.00,SW,225,4.0,-999.0,89,-99.99,,,-99.99,0.000000,,2013-10-17 04:00:00,
2013-10-17 00:43:00,48.0,45.0,-100.00,SW,225,4.0,-999.0,89,-99.99,,,-99.99,0.000000,,2013-10-17 04:43:00,
2013-10-17 00:54:00,48.0,45.0,-100.00,SW,225,4.0,-999.0,89,-99.99,,,-99.99,0.000000,,2013-10-17 04:54:00,
2013-10-17 01:00:00,48.0,45.0,-100.00,SW,225,3.0,-999.0,90,-99.99,,,-99.99,0.000000,,2013-10-17 05:00:00,
2013-10-17 01:42:00,48.0,45.0,-100.00,SW,225,3.0,-999.0,90,-99.99,,,-99.99,0.000000,,2013-10-17 05:42:00,
2013-10-17 01:52:00,48.0,45.0,-100.00,SW,225,3.0,-999.0,90,-99.99,,,-99.99,0.000000,,2013-10-17 05:52:00,
2013-10-17 02:00:00,48.0,45.0,-100.00,SW,225,3.0,-999.0,89,-99.99,,,-99.99,0.000000,,2013-10-17 06:00:00,
2013-10-17 02:42:00,48.0,45.0,-100.00,SW,225,3.0,-999.0,89,-99.99,,,-99.99,0.000000,,2013-10-17 06:42:00,
2013-10-17 02:52:00,48.0,45.0,-100.00,SW,225,3.0,-999.0,89,-99.99,,,-99.99,0.000000,,2013-10-17 06:52:00,
2013-10-17 03:00:00,49.0,45.0,-100.00,SW,225,4.0,-999.0,87,-99.99,,,-99.99,0.000000,,2013-10-17 07:00:00,
2013-10-17 03:43:00,49.0,45.0,-100.00,SW,225,4.0,-999.0,87,-99.99,,,-99.99,0.000000,,2013-10-17 07:43:00,
2013-10-17 03:52:00,49.0,45.0,-100.00,SW,225,4.0,-999.0,87,-99.99,,,-99.99,0.000000,,2013-10-17 07:52:00,
2013-10-17 04:00:00,48.0,45.0,-100.00,SW,225,4.0,-999.0,87,-99.99,,,-99.99,0.000000,,2013-10-17 08:00:00,
2013-10-17 04:42:00,48.0,45.0,-100.00,SW,225,4.0,-999.0,87,-99.99,,,-99.99,0.000000,,2013-10-17 08:42:00,
2013-10-17 04:52:00,48.0,45.0,-100.00,SW,225,4.0,-999.0,87,-99.99,,,-99.99,0.000000,,2013-10-17 08:52:00,
2013-10-17 05:00:00,48.0,45.0,-100.00,WSW,247,2.0,-999.0,89,-99.99,,,-99.99,0.000000,,2013-10-17 09:00:00,
2013-10-17 05:43:00,48.0,45.0,-100.00,WSW,247,2.0,-999.0,89,-99.99,,,-99.99,0.000000,,2013-10-17 09:43:00,
2013-10-17 05:53:00,48.0,45.0,-100.00,WSW,247,2.0,-999.0,89,-99.99,,,-99.99,0.000000,,2013-10-17 09:53:00,
2013-10-17 06:00:00,47.0,44.0,-100.00,SW,225,1.0,-999.0,88,-99.99,,,-99.99,0.000000,,2013-10-17 10:00:00,
2013-10-17 06:42:00,47.0,44.0,-100.00,SW,225,1.0,-999.0,88,-99.99,,,-99.99,0.000000,,2013-10-17 10:42:00,
2013-10-17 06:53:00,47.0,44.0,-100.00,SW,225,1.0,-999.0,88,-99.99,,,-99.99,0.000000,,2013-10-17 10:53:00,
2013-10-17 07:00:00,46.0,43.0,-100.00,SSW,202,2.0,-999.0,90,-99.99,,,-99.99,0.000000,,2013-10-17 11:00:00,
2013-10-17 07:42:00,46.0,43.0,-100.00,SSW,202,2.0,-999.0,90,-99.99,,,-99.99,0.000000,,2013-10-17 11:42:00,
2013-10-17 07:52:00,46.0,43.0,-100.00,SSW,202,2.0,-999.0,90,-99.99,,,-99.99,0.000000,,2013-10-17 11:52:00,
2013-10-17 08:00:00,46.0,44.0,-100.00,SSW,202,2.0,-999.0,90,-99.99,,,-99.99,1.160000,,2013-10-17 12:00:00,
2013-10-17 08:42:00,46.0,44.0,-100.00,SSW,202,2.0,-999.0,90,-99.99,,,-99.99,1.160000,,2013-10-17 12:42:00,
2013-10-17 08:52:00,46.0,44.0,-100.00,SSW,202,2.0,-999.0,90,-99.99,,,-99.99,1.160000,,2013-10-17 12:52:00,
2013-10-17 09:00:00,47.0,44.0,-100.00,SSW,202,3.0,-999.0,90,-99.99,,,-99.99,12.760000,,2013-10-17 13:00:00,
2013-10-17 09:42:00,47.0,44.0,-100.00,SSW,202,3.0,-999.0,90,-99.99,,,-99.99,12.760000,,2013-10-17 13:42:00,
2013-10-17 09:52:00,47.0,44.0,-100.00,SSW,202,3.0,-999.0,90,-99.99,,,-99.99,12.760000,,2013-10-17 13:52:00,
2013-10-17 10:00:00,48.0,45.0,-100.00,SSW,202,4.0,-999.0,89,-99.99,,,-99.99,40.599998,,2013-10-17 14:00:00,
2013-10-17 10:42:00,48.0,45.0,-100.00,SSW,202,4.0,-999.0,89,-99.99,,,-99.99,40.599998,,2013-10-17 14:42:00,
2013-10-17 10:52:00,48.0,45.0,-100.00,SSW,202,4.0,-999.0,89,-99.99,,,-99.99,40.599998,,2013-10-17 14:52:00,
2013-10-17 11:00:00,49.0,45.0,-100.00,SW,225,5.0,-999.0,86,-99.99,,,-99.99,99.760002,,2013-10-17 15:00:00,
2013-10-17 11:43:00,49.0,45.0,-100.00,SW,225,5.0,-999.0,86,-99.99,,,-99.99,99.760002,,2013-10-17 15:43:00,
2013-10-17 11:54:00,49.0,45.0,-100.00,SW,225,5.0,-999.0,86,-99.99,,,-99.99,99.760002,,2013-10-17 15:54:00,
2013-10-17 12:00:00,49.0,45.0,-100.00,SW,225,5.0,-999.0,86,0.02,,,-99.99,83.519997,,2013-10-17 16:00:00,
2013-10-17 12:43:00,49.0,45.0,-100.00,SW,225,5.0,-999.0,86,0.02,,,-99.99,83.519997,,2013-10-17 16:43:00,
2013-10-17 12:54:00,49.0,45.0,-100.00,SW,225,5.0,-999.0,86,0.02,,,-99.99,83.519997,,2013-10-17 16:54:00,
2013-10-17 13:00:00,48.0,45.0,-100.00,WSW,247,6.0,-999.0,90,0.03,,,-99.99,117.160004,,2013-10-17 17:00:00,
2013-10-17 13:42:00,48.0,45.0,-100.00,WSW,247,6.0,-999.0,90,0.03,,,-99.99,117.160004,,2013-10-17 17:42:00,
2013-10-17 13:53:00,48.0,45.0,-100.00,WSW,247,6.0,-999.0,90,0.03,,,-99.99,117.160004,,2013-10-17 17:53:00,
2013-10-17 15:00:00,48.0,45.0,-100.00,WSW,247,6.0,-999.0,89,0.03,,,-99.99,141.520004,,2013-10-17 19:00:00,
2013-10-17 15:42:00,48.0,45.0,-100.00,WSW,247,6.0,-999.0,89,0.03,,,-99.99,141.520004,,2013-10-17 19:42:00,
2013-10-17 15:53:00,48.0,45.0,-100.00,WSW,247,6.0,-999.0,89,0.03,,,-99.99,141.520004,,2013-10-17 19:53:00,
2013-10-17 16:00:00,48.0,45.0,-100.00,WSW,247,7.0,-999.0,89,-99.99,,,-99.99,177.479996,,2013-10-17 20:00:00,
2013-10-17 16:42:00,48.0,45.0,-100.00,WSW,247,7.0,-999.0,89,-99.99,,,-99.99,177.479996,,2013-10-17 20:42:00,
2013-10-17 16:52:00,48.0,45.0,-100.00,WSW,247,7.0,-999.0,89,-99.99,,,-99.99,177.479996,,2013-10-17 20:52:00,
2013-10-17 17:00:00,49.0,45.0,-100.00,WSW,247,6.0,-999.0,86,-99.99,,,-99.99,103.239998,,2013-10-17 21:00:00,
2013-10-17 17:44:00,49.0,45.0,-100.00,WSW,247,6.0,-999.0,86,-99.99,,,-99.99,103.239998,,2013-10-17 21:44:00,
2013-10-17 17:54:00,49.0,45.0,-100.00,WSW,247,6.0,-999.0,86,-99.99,,,-99.99,103.239998,,2013-10-17 21:54:00,
2013-10-17 18:00:00,47.0,45.0,-100.00,West,270,5.0,-999.0,91,0.14,,,-99.99,24.360001,,2013-10-17 22:00:00,
2013-10-17 18:43:00,47.0,45.0,-100.00,West,270,5.0,-999.0,91,0.14,,,-99.99,24.360001,,2013-10-17 22:43:00,
2013-10-17 18:53:00,47.0,45.0,-100.00,West,270,5.0,-999.0,91,0.14,,,-99.99,24.360001,,2013-10-17 22:53:00,
2013-10-17 19:00:00,47.0,45.0,-100.00,West,270,4.0,-999.0,91,0.07,,,-99.99,8.120000,,2013-10-17 23:00:00,
2013-10-17 19:43:00,47.0,45.0,-100.00,West,270,4.0,-999.0,91,0.07,,,-99.99,8.120000,,2013-10-17 23:43:00,
2013-10-17 19:53:00,47.0,45.0,-100.00,West,270,4.0,-999.0,91,0.07,,,-99.99,8.120000,,2013-10-17 23:53:00,
2013-10-17 20:00:00,47.0,45.0,-100.00,West,270,3.0,-999.0,92,0.08,,,-99.99,0.000000,,2013-10-18 00:00:00,
2013-10-17 20:42:00,47.0,45.0,-100.00,West,270,3.0,-999.0,92,0.08,,,-99.99,0.000000,,2013-10-18 00:42:00,
2013-10-17 20:53:00,47.0,45.0,-100.00,West,270,3.0,-999.0,92,0.08,,,-99.99,0.000000,,2013-10-18 00:53:00,
2013-10-17 21:00:00,47.0,45.0,-100.00,WSW,247,3.0,-999.0,92,0.01,,,-99.99,0.000000,,2013-10-18 01:00:00,
2013-10-17 21:42:00,47.0,45.0,-100.00,WSW,247,3.0,-999.0,92,0.01,,,-99.99,0.000000,,2013-10-18 01:42:00,
2013-10-17 21:53:00,47.0,45.0,-100.00,WSW,247,3.0,-999.0,92,0.01,,,-99.99,0.000000,,2013-10-18 01:53:00,
2013-10-17 22:00:00,46.0,44.0,-100.00,WSW,247,2.0,-999.0,92,-99.99,,,-99.99,0.000000,,2013-10-18 02:00:00,
2013-10-17 22:42:00,46.0,44.0,-100.00,WSW,247,2.0,-999.0,92,-99.99,,,-99.99,0.000000,,2013-10-18 02:42:00,
2013-10-17 22:52:00,46.0,44.0,-100.00,WSW,247,2.0,-999.0,92,-99.99,,,-99.99,0.000000,,2013-10-18 02:52:00,
2013-10-17 23:00:00,45.0,43.0,-100.00,WSW,247,2.0,-999.0,92,0.01,,,-99.99,0.000000,,2013-10-18 03:00:00,
2013-10-17 23:44:00,45.0,43.0,-100.00,WSW,247,2.0,-999.0,92,0.01,,,-99.99,0.000000,,2013-10-18 03:44:00,
2013-10-17 23:55:00,45.0,43.0,-100.00,WSW,247,2.0,-999.0,92,0.01,,,-99.99,0.000000,,2013-10-18 03:55:00,